This demonstration page uses our WeatherBlox Daily Observations layout. Learn more.

Left ArrowRight Arrow

Hourly Observations for November 13, 2018

Temp ( °F °C ) Dew Point ( °F °C ) Humidity (%) Winds ( mph kmh ) Pressure ( in mb ) Visibility ( mi km ) Precip ( " mm )
12:53 am 00:53 Clear 32 0 21 -6.1 64 64 SW 16 26 30.43 1030 10 16 0.00 0.00
1:53 am 01:53 Clear 31 -0.6 21 -6.1 67 67 SW 16 26 30.41 1030 10 16 0.00 0.00
2:53 am 02:53 Clear 31 -0.6 21 -6.1 67 67 SW 16 26 30.40 1030 10 16 0.00 0.00
3:53 am 03:53 Clear 30 -1.1 21 -6.1 69 69 SW 13 20 30.40 1029 10 16 0.00 0.00
4:53 am 04:53 Clear 29 -1.7 21 -6.1 72 72 SW 16 26 30.40 1029 10 16 0.00 0.00
5:53 am 05:53 Clear 31 -0.6 21 -6.1 67 67 SW 15 24 30.38 1029 10 16 0.00 0.00
6:53 am 06:53 Clear 34 1.1 22 -5.6 61 61 SSW 21 33 30.35 1028 10 16 0.00 0.00
7:53 am 07:53 Sunny 35 1.7 22 -5.6 59 59 SW 18 30 30.34 1028 10 16 0.00 0.00
8:53 am 08:53 Sunny 38 3.3 22 -5.6 52 52 SW 24 39 30.33 1027 10 16 0.00 0.00
9:53 am 09:53 Sunny 41 5 23 -5 49 49 SW 26 43 30.31 1026 10 16 0.00 0.00
10:53 am 10:53 Sunny 43 6.1 24 -4.4 47 47 SW 28 44 30.29 1026 10 16 0.00 0.00
11:53 am 11:53 Sunny 46 7.8 25 -3.9 44 44 SW 28 44 30.26 1025 10 16 0.00 0.00
12:53 pm 12:53 Sunny 47 8.3 26 -3.3 44 44 SW 32 52 30.22 1024 10 16 0.00 0.00
1:53 pm 13:53 Sunny 48 8.9 26 -3.3 42 42 SW 28 44 30.21 1023 10 16 0.00 0.00
2:53 pm 14:53 Sunny 48 8.9 26 -3.3 42 42 SW 23 37 30.21 1023 10 16 0.00 0.00
3:53 pm 15:53 Sunny 48 8.9 26 -3.3 42 42 SW 25 41 30.19 1022 10 16 0.00 0.00
4:53 pm 16:53 Clear 46 7.8 25 -3.9 44 44 SSW 24 39 30.18 1022 10 16 0.00 0.00
5:53 pm 17:53 Clear 47 8.3 25 -3.9 42 42 SW 23 37 30.18 1022 10 16 0.00 0.00
6:53 pm 18:53 Clear 43 6.1 26 -3.3 51 51 SW 17 28 30.17 1022 10 16 0.00 0.00
7:53 pm 19:53 Clear 45 7.2 25 -3.9 46 46 SW 17 28 30.16 1022 10 16 0.00 0.00
8:53 pm 20:53 Clear 43 6.1 26 -3.3 51 51 SW 18 30 30.16 1021 10 16 0.00 0.00
9:53 pm 21:53 Clear 42 5.6 26 -3.3 53 53 WSW 10 17 30.16 1021 10 16 0.00 0.00
10:53 pm 22:53 Clear 42 5.6 26 -3.3 53 53 SW 16 26 30.14 1021 10 16 0.00 0.00
11:53 pm 23:53 Clear 42 5.6 26 -3.3 53 53 WSW 15 24 30.14 1021 10 16 0.00 0.00

Powered by AerisWeather